CST,Max TemperatureF,Mean TemperatureF,Min TemperatureF,Max Dew PointF,MeanDew PointF,Min DewpointF,Max Humidity, Mean Humidity, Min Humidity, Max Sea Level PressureIn, Mean Sea Level PressureIn, Min Sea Level PressureIn, Max VisibilityMiles, Mean VisibilityMiles, Min VisibilityMiles, Max Wind SpeedMPH, Mean Wind SpeedMPH, Max Gust SpeedMPH,PrecipitationIn, CloudCover, Events, WindDirDegrees
2013-2-1,27,18,10,16,8,2,73,64,58,30.50,30.39,30.27,10,10,7,22,11,28,0.00,2,Snow,249
2013-2-2,39,32,26,28,23,16,82,69,58,30.26,30.12,30.05,10,10,5,16,11,23,0.00,5,Snow,251
2013-2-3,33,30,26,31,24,19,100,81,63,30.16,30.09,30.00,10,8,1,23,6,31,0.00,5,Snow,259
2013-2-4,50,38,27,41,30,19,93,74,65,30.06,29.90,29.80,10,10,7,20,8,24,0.00,4,,195
2013-2-5,50,40,31,40,32,28,93,80,61,30.14,29.97,29.89,10,8,4,15,6,18,0.00,4,,279
2013-2-6,49,38,27,34,32,28,100,79,52,30.26,30.18,30.11,10,8,2,8,2,,0.00,0,,127
2013-2-7,61,48,36,50,40,32,100,79,54,30.10,29.97,29.83,10,8,4,20,8,26,0.01,3,Rain,172
2013-2-8,41,36,32,39,31,27,93,84,78,30.39,30.26,30.00,10,10,4,23,15,29,0.00,8,,357
2013-2-9,44,38,32,34,30,27,83,74,61,30.38,30.27,30.07,10,10,10,10,6,,0.00,5,Rain,124
2013-2-10,55,47,39,54,45,35,100,90,61,30.09,29.82,29.63,10,9,2,18,10,26,0.31,7,Rain-Thunderstorm,159
2013-2-11,51,44,36,36,32,29,81,65,51,30.15,30.00,29.76,10,10,10,25,16,33,0.00,1,,253
2013-2-12,46,38,30,37,32,28,100,77,59,30.17,30.08,29.93,10,10,5,7,2,,0.00,1,,328
2013-2-13,50,43,36,36,34,32,90,75,52,29.93,29.87,29.82,10,8,4,13,4,16,0.00,3,,238
2013-2-14,54,45,36,40,35,33,90,73,51,30.05,29.92,29.83,10,10,10,17,9,23,0.00,1,,248
2013-2-15,39,34,29,35,27,20,93,73,51,30.23,30.18,30.05,10,10,10,17,6,23,0.00,3,,322
2013-2-16,33,28,23,22,19,15,81,67,48,30.23,30.20,30.17,10,10,10,17,8,22,0.00,1,,311
2013-2-17,44,33,22,25,22,19,89,66,41,30.23,30.14,30.01,10,10,10,12,4,16,0.00,0,,128
2013-2-18,55,46,36,49,39,25,95,78,60,30.00,29.81,29.60,10,9,3,26,14,39,0.10,5,Rain,182
2013-2-19,36,32,26,32,22,14,84,69,59,30.27,30.08,29.85,10,10,10,25,18,34,0.07,3,,283
2013-2-20,26,22,19,20,15,12,86,69,59,30.41,30.33,30.26,10,10,10,16,8,21,0.00,0,,349
2013-2-21,34,28,23,34,24,19,100,86,73,30.33,30.11,29.82,10,8,0,17,6,26,0.15,5,Snow,84
2013-2-22,37,32,26,36,31,23,100,90,75,30.08,29.94,29.81,10,8,0,16,6,23,0.05,6,Fog,239
2013-2-23,32,27,22,25,23,21,95,82,69,30.06,30.03,30.00,10,9,4,10,4,,0.00,0,,264
2013-2-24,45,34,22,30,26,22,99,76,52,30.15,30.10,30.03,10,8,2,6,1,,0.00,0,,78
2013-2-25,47,40,32,33,31,28,84,69,54,30.08,29.94,29.64,10,10,7,17,8,28,0.00,2,Rain-Thunderstorm,73
2013-2-26,50,43,36,45,40,32,100,93,69,29.61,29.46,29.37,10,7,1,18,12,31,0.49,8,Rain-Snow,123
2013-2-27,37,35,33,36,34,31,100,94,86,29.85,29.75,29.62,10,6,1,22,15,26,0.00,8,Snow,264
2013-2-28,37,35,33,34,32,32,100,91,86,30.08,29.98,29.85,7,6,2,17,11,22,0.00,8,Snow,291